Location: Champseau
(45.8333°N, 1.7667°E)
Time: 03:58:06
(UTC+00:00)

Cosmos 1190 Rocket - Pass Details

Date: 18 April 2021
Orbit: 757 x 779 km, 74.1° (Epoch: 10 May)

Event Time Altitude Azimuth Distance (km) Brightness Sun altitude
Exits shadow 21:47:50 34° 233° (SW) 1,241 5.0 -26.5°
Maximum altitude 21:49:53 57° 295° (WNW) 900 4.5 -26.7°
Drops below altitude 10° 21:55:02 10° 14° (NNE) 2,304 7.0 -27.2°
Sets 21:57:28 0° 19° (NNE) 3,231 7.8 -27.5°
